Miscellaneous Local Product
Issued by NWS North Platte, NE

Home | Current Version | Previous Version | Graphics & Text | Print | Product List | Glossary On
Versions: 1 2 3 4 5 6 7 8 9 10 11 12 13 14 15 16 17 18 19 20 21 22 23 24 25 26 27 28 29 30 31 32 33 34 35 36 37 38 39 40 41 42 43 44 45 46 47 48 49 50
000
AXUS43 KLBF 200510
MISLBF


WESTERN AND NORTH CENTRAL NEBRASKA HOURLY WEATHER ROUNDUP
NATIONAL WEATHER SERVICE NORTH PLATTE NE
1200 AM CDT SAT SEP 20 2014

***STATIONS NOT REPORTING VARIABLES SUCH AS SKY/WEATHER OR
PRESSURE ARE PROVIDED BY THE NEBRASKA DEPARTMENT OF
ROADS...RAWS...AND APRS NETWORKS...AND ARE NOT UNDER
NATIONAL WEATHER SERVICE QUALITY CONTROL***

...OBSERVATIONS IN AND NEAR THE EASTERN PANHANDLE OF NEBRASKA...

CITY           SKY/WX    TMP DP  RH WIND       PRES   REMARKS
PINE RIDGE     CLEAR     55  52  89 CALM      29.96R
CHADRON        CLEAR     61  52  72 CALM      29.97R
ALLIANCE       PTCLDY    62  51  67 NW3       29.96R
SIDNEY         MOCLDY    63  56  78 NW7       29.98S
WHITECLAY        N/A     54  50  86 CALM        N/A
RUSHVILLE        N/A     62  50  63 NE13        N/A
CRESCENT LAKE    N/A     67  54  64 N6          N/A
LISCO            N/A     73  54  50 W3          N/A
BIG SPRINGS      N/A     67  60  77 CALM        N/A
$$

...OBSERVATIONS IN NORTH CENTRAL NEBRASKA...

CITY           SKY/WX    TMP DP  RH WIND       PRES   REMARKS
VALENTINE      PTCLDY    67  56  67 NE8       29.89R
THEDFORD       CLEAR     69  59  70 CALM      29.89S
AINSWORTH      CLEAR     63  56  79 N9        29.90R
O`NEILL        PTCLDY    67  63  85 CALM      29.82R
ORD            PTCLDY    74  61  63 SW8       29.82R
BROKEN BOW     MOCLDY    71  61  70 SW3       29.86R
SPRINGVIEW       N/A     63  58  83 NW7G26      N/A
ROSE             N/A     78  63  60 N3          N/A
NEWPORT          N/A     60  58  92 W3          N/A
COMSTOCK         N/A     78  65  65 W6          N/A
CHAMBERS         N/A     65  60  85 CALM        N/A
$$

...OBSERVATIONS IN SOUTHWEST NEBRASKA AND FAR NORTHEAST COLORADO...

CITY           SKY/WX    TMP DP  RH WIND       PRES   REMARKS
WRAY           FAIR      75  57  53 S16G23    29.92F
HOLYOKE        FAIR      72  55  56 NW3       29.92R
IMPERIAL       CLOUDY    73  60  63 SW10      29.90R
OGALLALA       MOCLDY    64  57  78 NE6       29.89R
NORTH PLATTE   CLOUDY    68  60  75 N3        29.87R
MCCOOK         MOCLDY    74  58  57 S9        29.88S
LEXINGTON      MOCLDY    75  60  59 S16       29.85S
PAXTON           N/A     67  59  75 CALM        N/A
SUTHERLAND       N/A     79  63  57 S7          N/A
BRADY            N/A     76  60  58 CALM        N/A
GOTHENBURG       N/A     78  56  46 S8          N/A
CALLAWAY         N/A     67  62  84 W3          N/A
$$

...SOME WEATHER OBSERVATIONS FROM AROUND THE REGION...

CITY           SKY/WX    TMP DP  RH WIND       PRES   REMARKS
DENVER         PTCLDY    62  49  62 S9        30.08R
LARAMIE        CLEAR     53  40  61 E6        30.22R
CHEYENNE       PTCLDY    63  41  44 SW9       30.12R
SCOTTSBLUFF    CLEAR     62  51  67 CALM      29.97R
RAPID CITY     MOCLDY    66  49  54 NW10      29.97R
PIERRE         MOCLDY    70  52  52 NW13      29.82R
WINNER         FAIR      67  59  75 S5        29.85F
SIOUX FALLS    CLOUDY    74  62  66 W7        29.75R
OMAHA          PTCLDY    74  67  78 S15       29.81S
GRAND ISLAND   CLEAR     77  61  57 SW23G30   29.83S
KANSAS CITY    CLEAR     68  66  93 S10       29.95S
WICHITA        PTCLDY    72  67  84 S10       29.96R
HAYS           CLEAR     72  59  64 S13       29.93S
LIBERAL        CLEAR     68  57  68 S8        30.00S
GOODLAND       CLEAR     70  61  73 S13       29.97R
$$



USA.gov is the U.S. government's official web portal to all federal, state and local government web resources and services.